Lid_Strength_Index
8 11 13 11 10 10 12 12 13 12 10 11 11 11 10 9 9 10 10 9 9 8 7 6 6 6 5 3 3 2 2 3 2 2 2 3 3 2 2 1 2 1 1 0
10 12 9 8 9 10 12 13 13 11 10 12 12 12 10 10 9 9 9 9 9 8 8 7 6 7 5 4 3 3 2 3 2 2 2 3 3 4 3 3 3 2 2 2
11 10 8 9 10 11 12 13 13 13 11 12 13 14 12 9 9 9 8 8 8 8 8 8 7 7 7 6 4 3 2 2 2 2 3 5 5 5 5 4 4 4 4 3
10 8 10 10 11 11 13 11 11 11 13 17 12 18 14 12 11 10 9 9 9 8 7 7 7 7 7 6 5 4 3 4 3 3 3 4 4 5 5 5 5 3 4 4
11 11 11 11 10 10 12 10 11 12 14 14 15 17 15 12 13 11 10 9 9 8 8 8 7 7 6 6 6 6 5 5 5 4 4 4 5 6 6 6 6 6 5 4
10 9 9 10 9 9 9 11 11 12 13 18 15 15 17 14 13 12 11 10 8 8 8 8 7 7 7 6 6 6 6 5 5 5 4 5 5 6 7 7 6 6 6 6
11 11 10 9 11 10 11 13 17 18 19 19 15 16 15 12 11 11 11 10 10 7 8 8 8 8 8 7 7 6 6 7 6 6 5 5 5 6 7 6 7 7 8 8
14 16 11 9 10 11 12 12 16 21 20 19 16 18 16 11 11 11 10 10 10 9 9 8 8 8 8 8 7 7 7 7 7 6 6 5 5 6 6 6 6 7 7 7
15 15 11 10 10 9 12 14 11 15 19 19 16 14 12 11 11 11 10 10 10 9 8 8 8 8 8 8 8 7 7 7 7 7 6 6 6 6 6 6 7 7 7 8
13 16 13 12 11 11 12 10 15 15 21 22 18 17 16 13 11 10 11 10 9 9 8 8 8 8 8 8 8 8 7 7 7 7 7 6 6 6 6 6 7 8 8 8
11 13 15 13 14 14 14 14 13 13 15 19 20 17 12 11 10 10 10 9 9 9 9 8 8 8 8 8 8 8 8 8 7 7 7 7 7 7 6 7 7 8 9 9
10 12 16 14 12 12 13 14 13 17 18 17 17 16 11 10 10 10 10 9 9 9 8 8 8 8 9 9 8 8 8 8 8 7 7 7 7 7 7 8 8 9 10 12
10 13 18 16 14 13 14 13 12 12 15 17 18 16 11 10 10 10 10 9 8 8 8 8 9 9 9 9 9 9 8 8 8 8 8 8 8 8 8 8 9 10 11 13
8 12 15 17 14 12 14 13 12 12 16 16 15 14 12 11 11 10 10 10 9 9 8 8 8 9 8 8 9 9 9 8 8 8 8 9 9 8 8 9 10 12 13 15
10 14 13 12 12 12 12 13 12 14 13 15 14 13 12 10 10 9 8 9 9 9 9 9 9 8 8 8 9 9 9 9 8 9 8 8 8 9 9 11 12 14 15 15
9 14 13 16 13 12 14 12 12 12 12 12 12 12 9 8 8 8 8 8 8 8 8 8 8 8 8 8 8 8 9 9 9 8 9 9 11 11 12 12 13 14 15 16
11 13 14 17 13 14 16 13 12 12 10 11 14 10 8 8 8 8 8 8 7 7 7 7 7 7 7 8 8 8 9 9 11 11 12 13 13 13 13 14 14 15 16 17
12 12 13 17 16 20 13 9 9 11 10 9 9 9 8 8 7 7 6 7 7 7 7 8 8 8 8 9 9 10 11 12 12 13 14 15 14 14 15 15 15 16 16 17
8 11 15 20 21 15 13 12 12 12 13 9 10 9 9 8 8 8 7 7 8 8 8 9 9 10 10 10 12 14 14 13 13 13 13 14 15 15 15 16 16 17 17 17
10 9 13 19 20 23 13 10 8 8 14 10 10 10 10 10 13 10 9 9 9 9 10 11 11 11 12 14 15 15 14 15 14 14 14 14 15 16 16 16 17 17 17 16
13 12 14 15 16 14 10 10 9 16 14 11 11 10 9 11 9 8 8 9 10 10 11 12 13 13 14 15 15 15 15 16 15 16 16 16 16 17 17 18 18 17 16 16
14 15 16 14 16 18 8 11 13 10 11 10 10 8 9 7 7 8 8 10 11 12 12 13 15 14 15 15 15 16 16 16 17 17 17 18 19 17 17 16 15 16 16 16
15 14 16 14 15 9 8 10 8 7 8 9 8 9 8 8 8 9 9 11 12 13 13 14 16 16 16 17 16 16 16 16 16 17 19 19 19 18 18 18 16 16 16 16
12 10 12 13 11 10 9 8 8 7 6 7 8 8 8 9 10 10 11 12 13 15 15 16 16 17 18 17 16 17 16 17 16 16 17 18 18 18 17 17 17 17 16 16
12 12 14 13 10 10 9 8 7 6 7 7 7 7 8 9 10 11 12 12 13 14 15 16 17 17 17 17 17 15 16 16 16 16 15 15 15 15 16 16 17 17 17 15
11 11 12 13 10 9 9 8 7 7 7 7 7 8 8 8 9 11 12 12 14 15 16 17 18 18 18 18 19 19 16 17 17 16 14 14 13 15 17 17 14 12 12 11